Location: Observatory
(52.1446°N, 0.4624°W)
Time: 15:52:22
(UTC+01:00)

ISS - Pass Details

Date: 06 January 2018
Orbit: 402 x 409 km, 51.6° (Epoch: 17 August)

Event Time Altitude Azimuth Distance (km) Brightness Sun altitude
Exits shadow 05:52:53 81° 232° (SW) 433 -3.9 -19.8°
Maximum altitude 05:53:00 84° 183° (S) 430 -3.8 -19.8°
Drops below altitude 10° 05:56:25 10° 92° (E) 1,515 0.3 -19.3°
Sets 05:58:32 0° 92° (E) 2,383 1.6 -18.9°
